リニア-ヒル彗星

429P/LINEAR-Hill (2022)

English version
Home page
Updated on March 27, 2022

---------------------------------------------------------------------

・ プロフィール

符号 429P/2021 M1
検出日 2021年6月18日
検出光度 22.9等
検出者 Pan-STARRS 1 telescope (Haleakala)

・ 写真集

・ 軌道要素

Epoch 2022 Jan. 21.0 TT = JDT 2459600.5
T 2022 Jan. 2.13648 TT                                  Rudenko
q   1.8062242            (2000.0)            P               Q
n   0.14730813     Peri.   75.53522     +0.78707435     -0.61158803
a   3.5507349      Node   322.07358     +0.50345766     +0.71226326
e   0.4913098      Incl.    7.52197     +0.35643281     +0.34444321
P   6.69
From 571 observations 2008 Aug. 25-2022 Jan. 31, mean residual 0".7.

・ 光度変化

        m1 = 11.0 + 5 logΔ + 25.0 log r(t - 45)

---------------------------------------------------------------------

軌道要素はM.P.E.C. 2022-C56に掲載されたものです。
光度グラフはComet for Windowsで作成したものです。

---------------------------------------------------------------------

Copyright(C) Seiichi Yoshida (comet@aerith.net). All rights reserved.